When you browse on this site, cookies collect data to enhance your experience and personalize the content and advertising you see.
Visit our Privacy Policy to learn more. By continuing to use the site, you agree to this use of cookies and data.
  • In Czech Republic
  • List of Countries
  • For 7 days
  • Water Temperature
  • Weather Map
  • Weather Widgets
  • user-avatar
    Login

    Hourly Weather Bregenz

    Today, 7 April, Tuesday

    Time Temperature Precipitation Wind Pressure Humidity
    00:00 +2°C° 0 mm 2 mps 652 mmHg 71%
    01:00 +2°C° 0 mm 2 mps 652 mmHg 70%
    02:00 +2°C° 0 mm 2 mps 652 mmHg 71%
    03:00 +1°C° 0 mm 2 mps 652 mmHg 71%
    04:00 +2°C° 0 mm 1 mps 652 mmHg 71%
    05:00 +3°C° 0 mm 1 mps 652 mmHg 71%
    06:00 +3°C° 0 mm 1 mps 652 mmHg 71%
    07:00 +3°C° 0 mm 1 mps 652 mmHg 71%
    08:00 +6°C° 0 mm 1 mps 653 mmHg 65%
    09:00 +8°C° 0 mm 1 mps 654 mmHg 60%
    10:00 +11°C° 0 mm 1 mps 654 mmHg 54%
    11:00 +12°C° 0 mm 1 mps 654 mmHg 52%
    12:00 +13°C° 0 mm 1 mps 654 mmHg 50%
    13:00 +14°C° 0 mm 1 mps 654 mmHg 48%
    14:00 +14°C° 0 mm 2 mps 654 mmHg 49%
    15:00 +14°C° 0 mm 2 mps 654 mmHg 49%
    16:00 +14°C° 0 mm 2 mps 654 mmHg 49%
    17:00 +12°C° 0 mm 2 mps 653 mmHg 59%
    18:00 +9°C° 0 mm 1 mps 652 mmHg 68%
    19:00 +7°C° 0 mm 1 mps 651 mmHg 78%
    20:00 +6°C° 0 mm 1 mps 652 mmHg 77%
    21:00 +4°C° 0 mm 2 mps 652 mmHg 76%
    22:00 +4°C° 0 mm 2 mps 652 mmHg 76%
    23:00 +3°C° 0 mm 2 mps 652 mmHg 74%

    Tomorrow, 8 April, Wednesday

    Time Temperature Precipitation Wind Pressure Humidity
    00:00 +3°C° 0 mm 2 mps 652 mmHg 72%
    01:00 +2°C° 0 mm 2 mps 652 mmHg 70%
    02:00 +2°C° 0 mm 2 mps 651 mmHg 69%
    03:00 +2°C° 0 mm 2 mps 651 mmHg 68%
    04:00 +1°C° 0 mm 2 mps 651 mmHg 67%
    05:00 +3°C° 0 mm 1 mps 651 mmHg 65%
    06:00 +4°C° 0 mm 1 mps 651 mmHg 63%
    07:00 +4°C° 0 mm 1 mps 651 mmHg 61%
    08:00 +7°C° 0 mm 1 mps 652 mmHg 57%
    09:00 +9°C° 0 mm 1 mps 652 mmHg 52%
    10:00 +12°C° 0 mm 1 mps 653 mmHg 47%
    11:00 +13°C° 0 mm 1 mps 653 mmHg 47%
    12:00 +14°C° 0 mm 1 mps 653 mmHg 47%
    13:00 +14°C° 0 mm 1 mps 653 mmHg 46%
    14:00 +14°C° 0 mm 1 mps 653 mmHg 48%
    15:00 +14°C° 0 mm 1 mps 652 mmHg 50%
    16:00 +14°C° 0 mm 1 mps 652 mmHg 52%
    17:00 +12°C° 0.1 mm 1 mps 651 mmHg 62%
    18:00 +10°C° 0.1 mm 1 mps 650 mmHg 71%
    19:00 +6°C° 0.1 mm 0 mps 650 mmHg 80%
    20:00 +7°C° 0 mm 1 mps 650 mmHg 81%
    21:00 +6°C° 0 mm 1 mps 650 mmHg 83%
    22:00 +5°C° 0 mm 1 mps 650 mmHg 84%
    23:00 +5°C° 0 mm 1 mps 650 mmHg 84%

    Day after tomorrow, 9 April, Thursday

    Time Temperature Precipitation Wind Pressure Humidity
    00:00 +5°C° 0 mm 1 mps 650 mmHg 85%
    01:00 +5°C° 0 mm 1 mps 650 mmHg 86%
    02:00 +4°C° 0 mm 1 mps 649 mmHg 86%
    03:00 +4°C° 0 mm 1 mps 649 mmHg 87%
    04:00 +4°C° 0 mm 1 mps 649 mmHg 87%
    05:00 +4°C° 0 mm 1 mps 649 mmHg 86%
    06:00 +5°C° 0 mm 1 mps 650 mmHg 85%
    07:00 +5°C° 0 mm 1 mps 650 mmHg 84%
    08:00 +7°C° 0 mm 1 mps 650 mmHg 77%
    09:00 +9°C° 0 mm 1 mps 651 mmHg 70%
    10:00 +11°C° 0 mm 1 mps 652 mmHg 63%
    11:00 +12°C° 0 mm 1 mps 652 mmHg 59%
    12:00 +13°C° 0 mm 1 mps 652 mmHg 56%
    13:00 +13°C° 0 mm 1 mps 652 mmHg 52%
    14:00 +13°C° 0 mm 2 mps 651 mmHg 53%
    15:00 +13°C° 0 mm 2 mps 651 mmHg 54%
    16:00 +13°C° 0 mm 2 mps 651 mmHg 55%
    17:00 +11°C° 0 mm 1 mps 650 mmHg 64%
    18:00 +9°C° 0 mm 1 mps 649 mmHg 73%
    19:00 +7°C° 0 mm 1 mps 649 mmHg 81%
    20:00 +6°C° 0 mm 1 mps 649 mmHg 83%
    21:00 +5°C° 0 mm 1 mps 649 mmHg 84%
    22:00 +5°C° 0 mm 1 mps 649 mmHg 85%
    23:00 +4°C° 0 mm 1 mps 649 mmHg 86%

    10 April, Friday

    Time Temperature Precipitation Wind Pressure Humidity
    00:00 +4°C° 0 mm 1 mps 649 mmHg 86%
    01:00 +4°C° 0 mm 1 mps 649 mmHg 86%
    02:00 +4°C° 0 mm 1 mps 649 mmHg 86%
    03:00 +3°C° 0 mm 1 mps 649 mmHg 87%
    04:00 +3°C° 0 mm 1 mps 649 mmHg 87%
    05:00 +4°C° 0 mm 1 mps 649 mmHg 85%
    06:00 +5°C° 0 mm 1 mps 649 mmHg 82%
    07:00 +5°C° 0 mm 1 mps 650 mmHg 80%
    08:00 +8°C° 0 mm 1 mps 650 mmHg 72%
    09:00 +10°C° 0 mm 1 mps 651 mmHg 64%
    10:00 +12°C° 0 mm 1 mps 652 mmHg 56%
    11:00 +13°C° 0 mm 1 mps 652 mmHg 53%
    12:00 +14°C° 0 mm 1 mps 652 mmHg 49%
    13:00 +15°C° 0 mm 1 mps 652 mmHg 46%
    14:00 +15°C° 0 mm 1 mps 651 mmHg 47%
    15:00 +15°C° 0 mm 1 mps 651 mmHg 47%
    16:00 +15°C° 0 mm 1 mps 651 mmHg 48%
    17:00 +13°C° 0 mm 1 mps 650 mmHg 57%
    18:00 +10°C° 0 mm 1 mps 649 mmHg 67%
    19:00 +7°C° 0 mm 0 mps 648 mmHg 76%
    20:00 +8°C° 0 mm 1 mps 649 mmHg 77%
    21:00 +7°C° 0 mm 1 mps 649 mmHg 79%
    22:00 +7°C° 0 mm 1 mps 649 mmHg 80%
    23:00 +6°C° 0 mm 1 mps 649 mmHg 80%

    11 April, Saturday

    Time Temperature Precipitation Wind Pressure Humidity
    00:00 +6°C° 0 mm 1 mps 649 mmHg 81%
    01:00 +6°C° 0 mm 1 mps 649 mmHg 81%
    02:00 +6°C° 0 mm 1 mps 649 mmHg 80%
    03:00 +6°C° 0 mm 1 mps 649 mmHg 80%
    04:00 +6°C° 0 mm 1 mps 648 mmHg 79%
    05:00 +6°C° 0 mm 1 mps 649 mmHg 78%
    06:00 +7°C° 0 mm 1 mps 649 mmHg 77%
    07:00 +8°C° 0 mm 1 mps 649 mmHg 76%
    08:00 +10°C° 0 mm 1 mps 650 mmHg 68%
    09:00 +12°C° 0 mm 1 mps 650 mmHg 61%
    10:00 +14°C° 0 mm 1 mps 651 mmHg 53%
    11:00 +15°C° 0 mm 1 mps 651 mmHg 49%
    12:00 +15°C° 0 mm 1 mps 651 mmHg 46%
    13:00 +16°C° 0 mm 2 mps 651 mmHg 43%
    14:00 +16°C° 0 mm 2 mps 650 mmHg 43%
    15:00 +15°C° 0 mm 2 mps 650 mmHg 44%
    16:00 +15°C° 0 mm 2 mps 650 mmHg 44%
    17:00 +13°C° 0 mm 1 mps 649 mmHg 51%
    18:00 +11°C° 0 mm 1 mps 648 mmHg 59%
    19:00 +9°C° 0 mm 1 mps 648 mmHg 66%
    20:00 +9°C° 0 mm 1 mps 648 mmHg 68%
    21:00 +8°C° 0 mm 1 mps 648 mmHg 69%
    22:00 +7°C° 0 mm 1 mps 648 mmHg 70%
    23:00 +7°C° 0 mm 1 mps 648 mmHg 73%

    12 April, Sunday

    Time Temperature Precipitation Wind Pressure Humidity
    00:00 +5°C° 0 mm 2 mps 648 mmHg 75%
    01:00 +5°C° 0 mm 2 mps 647 mmHg 78%
    02:00 +6°C° 0 mm 1 mps 647 mmHg 79%
    03:00 +6°C° 0 mm 1 mps 647 mmHg 80%
    04:00 +5°C° 0 mm 1 mps 646 mmHg 81%
    05:00 +6°C° 0 mm 1 mps 646 mmHg 79%
    06:00 +7°C° 0 mm 1 mps 646 mmHg 78%
    07:00 +7°C° 0 mm 1 mps 647 mmHg 77%
    08:00 +9°C° 0.1 mm 1 mps 647 mmHg 72%
    09:00 +10°C° 0.1 mm 1 mps 647 mmHg 67%
    10:00 +12°C° 0.1 mm 1 mps 647 mmHg 62%
    11:00 +13°C° 0.3 mm 1 mps 647 mmHg 61%
    12:00 +13°C° 0.3 mm 1 mps 646 mmHg 60%
    13:00 +14°C° 0.3 mm 1 mps 646 mmHg 59%
    14:00 +14°C° 0.4 mm 1 mps 646 mmHg 58%
    15:00 +14°C° 0.4 mm 1 mps 645 mmHg 58%
    16:00 +14°C° 0.4 mm 1 mps 645 mmHg 58%
    17:00 +12°C° 0.1 mm 1 mps 644 mmHg 63%
    18:00 +10°C° 0.1 mm 1 mps 644 mmHg 68%
    19:00 +9°C° 0.1 mm 1 mps 643 mmHg 74%
    20:00 +8°C° 0 mm 1 mps 643 mmHg 75%
    21:00 +6°C° 0 mm 2 mps 643 mmHg 76%
    22:00 +5°C° 0 mm 2 mps 643 mmHg 77%
    23:00 +5°C° 0 mm 2 mps 643 mmHg 76%
    Show more